Regional Weather Roundup
Issued by NWS

Home | Current Version | Previous Version | Graphics & Text | Print | Product List | Glossary On
Versions: 1 2 3 4 5 6 7 8 9 10 11 12 13 14 15 16 17 18 19 20 21 22 23 24 25 26 27 28 29 30 31 32 33 34 35 36 37 38 39 40 41 42 43 44 45 46 47 48 49 50
000
ASUS45 KCYS 240410
RWRWY

WYOMING REGIONAL WEATHER ROUNDUP
NATIONAL WEATHER SERVICE CHEYENNE WY
1000 PM MDT SAT SEP 23 2017

NOTE:  "FAIR" INDICATES FEW OR NO CLOUDS BELOW 12,000 FEET
WITH NO SIGNIFICANT WEATHER AND/OR OBSTRUCTIONS TO VISIBILITY.

WYZ001-240500-
YELLOWSTONE NATIONAL PARK

CITY           SKY/WX    TMP DP  RH WIND       PRES   REMARKS
LK YELLOWSTONE NOT AVBL
W YELLOWSTONE  NOT AVBL

$$
WYZ002>013-054>058-071-098>099-240500-
NORTHERN WYOMING

CITY           SKY/WX    TMP DP  RH WIND       PRES   REMARKS
JACKSON        FAIR      41  34  76 N6        29.99R
CODY           CLOUDY    39  33  79 N8        30.10S WCI  33
GREYBULL       CLOUDY    43  41  93 NW13      30.03S
WORLAND        CLOUDY    42  40  92 NW6       30.06R
SHERIDAN       LGT RAIN  40  40 100 N3        30.10R
BUFFALO        CLOUDY    38  35  89 N12       30.07F WCI  30
GILLETTE       CLOUDY    41  32  70 N8        30.05R FOG
HULETT         LGT RAIN  41  41 100 NE5       30.04F
NEWCASTLE      LGT RAIN  43  43 100 SE6       30.02S

$$
WYZ014>020-022>026-101>103-240500-
CENTRAL WYOMING

CITY           SKY/WX    TMP DP  RH WIND       PRES   REMARKS
BIG PINEY      LGT RAIN  39  37  92 NW8       29.96F WCI  33
PINEDALE       CLOUDY    39  36  87 W5        29.97S
DUBOIS         FOG       34  34 100 E9        30.02S VSB 1/4 WCI  26
LANDER         LGT RAIN  39  38  96 NW3       30.04R
RIVERTON       LGT RAIN  39  37  92 N7        30.04S WCI  34
CASPER         CLOUDY    38  37  97 N14G22    30.02R WCI  30
DOUGLAS        CLOUDY    43  41  93 N8        29.99F FOG

$$
WYZ021-027>030-104>119-240500-
SOUTHERN WYOMING

CITY           SKY/WX    TMP DP  RH WIND       PRES   REMARKS
EVANSTON       LGT SNOW  33  33 100 N3        29.96S VSB 1
KEMMERER         N/A     37  34  87 N13G18    29.94S WCI  29
FORT BRIDGER   TSTM      37  37 100 W10G17    29.96S WCI  30
ROCK SPRINGS   CLOUDY    37  34  89 NE18G28   29.96R WCI  27
DIXON          FAIR      43  37  77 NE6       29.94F
RAWLINS        CLOUDY    41  38  89 N8        29.97S
SARATOGA       FAIR      41  37  87 W3        29.95S
LARAMIE        MOCLDY    40  38  93 SE14      29.97S WCI  32
CHEYENNE       LGT RAIN  41  40  96 NE6       29.97S
TORRINGTON     RAIN      44  43  96 NE7       29.97F
PINE BLUFFS    RAIN      43  43 100 MISG      29.98F

$$



USA.gov is the U.S. government's official web portal to all federal, state and local government web resources and services.